UBAKUSAT (43467 NORAD) Tracking and Keplerian Element Data

This shows tracking and keplerian element data for the satellite.

Feedback or suggestion? Click here.




ElementValue
Catalog43467
NameUBAKUSAT
Epoch Orbit13993
Epoch Day294.8927448
Epoch Year2020
RAAN352.4786
Inclination51.633
Eccentricity0.0002949
Argument of Perigee14.4893
Mean Anonmoly345.6195
Mean Motion15.85305434
Decay Rate0.00071554
L11 43467U 98067NQ 20294.89274480 .00071554 00000-0 29420-3 0 9995
L22 43467 51.6330 352.4786 0002949 14.4893 345.6195 15.85305434139938

Live tracking and technical data element details for UBAKUSAT (NORAD 43467). UBAKUSAT can be tracked NOW for your location showing map with azimuth and elevation plus other details from your city location.

Track the satellite on the map from your city or location and see movement details for azimuth, elevation, latitude, longitude, range, height, and movement on the map or in text.







IsCatalogInMostPopularTable: catalog: 43467, numindb: 447
Update: records affected: 1



GetName: 43467 UBAKUSAT

Hit Count: updated at: Thu, 22 Oct 2020 03:03:35 GMT